FW9179 Weather Reports


time (UTC)temp
C
wind
direction
speed
KPH
gust
KPH
rain 1hr
cm
rain 24hr
cm
rain mn
cm
humidity
%
barometer
mb
20260505140104 6 175 4.8 6.4 0.00 0.00 0.00 79 903.4
20260505130107 7 143 8.0 14.5 0.00 0.00 0.00 76 903.7
20260505124605 8 141 8.0 12.9 0.00 0.00 0.00 75 903.7
20260505123104 9 136 3.2 6.4 0.00 0.00 0.00 72 903.9
20260505121604 10 105 9.7 9.7 0.00 0.00 0.00 71 903.9
20260505120106 10 124 11.3 12.9 0.00 0.00 0.00 70 904.1
20260505113104 10 121 9.7 16.1 0.00 0.00 0.00 69 904.1
20260505111604 10 114 11.3 14.5 0.00 0.00 0.00 70 904.1
20260505110104 10 107 12.9 16.1 0.00 0.00 0.00 69 904.1
20260505101605 10 71 9.7 14.5 0.00 0.00 0.00 70 904.3
20260505100108 10 56 14.5 20.9 0.00 0.00 0.00 71 904.3
20260505094606 10 58 16.1 19.3 0.00 0.00 0.00 70 904.3
20260505093111 10 53 14.5 17.7 0.00 0.00 0.00 69 904.4
20260505091604 11 54 20.9 35.4 0.00 0.00 0.00 69 904.3
20260505090106 11 61 16.1 19.3 0.00 0.00 0.00 68 904.4
20260505084604 11 46 20.9 29.0 0.00 0.00 0.00 67 904.5
20260505083108 11 51 16.1 17.7 0.00 0.00 0.00 67 904.4
20260505081605 11 65 14.5 17.7 0.00 0.00 0.00 67 904.5
20260505074608 11 60 14.5 17.7 0.00 0.00 0.00 67 904.4
20260505073106 11 32 19.3 30.6 0.00 0.00 0.00 67 904.4
20260505071605 11 25 17.7 22.5 0.00 0.00 0.00 68 904.4
20260505070106 11 48 11.3 20.9 0.00 0.00 0.00 69 904.5
20260505064608 11 40 12.9 16.1 0.00 0.00 0.00 69 904.4
20260505063106 11 35 12.9 17.7 0.00 0.00 0.00 69 904.7
20260505061604 12 10 17.7 25.7 0.00 0.00 0.00 68 904.5
20260505060104 12 5 20.9 37.0 0.00 0.00 0.00 68 904.7
20260505054607 11 16 19.3 37.0 0.00 0.00 0.00 69 904.7
20260505053109 11 10 14.5 19.3 0.00 0.00 0.00 69 904.7
20260505051604 12 11 20.9 38.6 0.00 0.00 0.00 69 904.7
20260505050107 12 15 12.9 19.3 0.00 0.00 0.00 68 904.5
20260505041607 11 19 9.7 12.9 0.00 0.00 0.00 69 904.5
20260505040107 12 46 8.0 12.9 0.00 0.00 0.00 68 904.8
20260505034603 12 32 6.4 12.9 0.00 0.00 0.00 68 904.8
20260505033105 12 17 9.7 14.5 0.00 0.00 0.00 67 904.7
20260505031605 12 39 6.4 9.7 0.00 0.00 0.00 68 904.8
20260505030105 12 12 8.0 11.3 0.00 0.00 0.00 67 904.9
20260505024604 12 5 8.0 14.5 0.00 0.00 0.00 67 904.8
20260505023104 13 355 9.7 22.5 0.00 0.00 0.00 66 905.0
20260505021610 13 17 6.4 12.9 0.00 0.00 0.00 66 904.7
20260505014604 14 347 3.2 9.7 0.00 0.00 0.00 66 904.5
20260505011607 14 299 8.0 17.7 0.00 0.00 0.00 66 904.7
20260505010105 15 309 11.3 20.9 0.00 0.00 0.00 65 905.0
20260505004607 15 281 9.7 12.9 0.00 0.00 0.00 65 904.3
20260505003104 15 311 12.9 19.3 0.00 0.00 0.00 64 904.1
20260505001613 15 307 11.3 17.7 0.00 0.00 0.00 64 903.8
20260505000104 15 311 9.7 17.7 0.00 0.00 0.00 64 903.8
20260504234603 15 308 9.7 14.5 0.00 0.00 0.00 65 903.7
20260504233104 15 303 9.7 14.5 0.00 0.00 0.00 67 903.6
20260504231604 15 301 9.7 16.1 0.00 0.00 0.00 70 903.6
20260504230105 14 310 12.9 19.3 0.00 0.00 0.00 70 903.6
20260504224604 14 303 9.7 12.9 0.00 0.00 0.00 72 903.4
20260504223104 14 297 11.3 17.7 0.00 0.00 0.00 73 903.4
20260504221604 13 280 8.0 12.9 0.00 0.00 0.00 73 903.3
20260504220104 14 298 9.7 16.1 0.00 0.00 0.00 73 903.3
20260504214604 13 306 6.4 12.9 0.00 0.00 0.00 74 903.2
20260504213108 13 308 6.4 11.3 0.00 0.00 0.00 75 903.1
20260504211607 13 308 6.4 12.9 0.00 0.00 0.00 75 903.1
20260504204603 13 324 3.2 6.4 0.00 0.00 0.00 70 902.8
20260504203104 13 305 9.7 16.1 0.00 0.00 0.00 72 902.8
20260504201604 12 304 4.8 9.7 0.00 0.00 0.00 73 902.8
20260504194604 13 321 4.8 11.3 0.00 0.00 0.00 74 902.9
20260504193104 12 28 4.8 9.7 0.00 0.00 0.00 75 902.9
20260504191613 12 324 9.7 12.9 0.00 0.00 0.00 74 902.8
20260504190107 12 325 4.8 8.0 0.00 0.00 0.00 72 902.8
20260504184604 12 339 4.8 12.9 0.00 0.00 0.00 70 902.8
20260504183110 12 312 8.0 12.9 0.00 0.00 0.00 67 902.7
20260504181607 12 317 6.4 9.7 0.00 0.00 0.00 65 902.8
20260504173104 12 320 4.8 9.7 0.00 0.00 0.00 69 902.9
20260504171610 11 301 6.4 9.7 0.00 0.00 0.00 68 902.9
20260504170107 12 311 6.4 12.9 0.00 0.00 0.00 67 903.1
20260504160107 11 296 1.6 6.4 0.00 0.00 0.00 69 903.1
20260504150104 11 20 6.4 9.7 0.00 0.00 0.00 67 904.1